www.pogodaiklimat.ru

Погода и климат >> Архив погоды >> Австралия >> Западная Австралия >> Мунглинап Запад


ПОГОДА в Мунглинап Запад

  • Прогноз погоды в Мунглинап Запад
  • Монитор погоды в Мунглинап Запад

АРХИВ ПОГОДЫ в Мунглинап Запад

Время (UTC), дата Ветер
(напр.,м/с)
 
Видим.   Явления Облачность Т
(С)
Тd
(С)
f
(%)
Тe
(С)
Тes
(С)
Комфортность P
(гПа)
Po
(гПа)
Тmin
(С)
Tmax
(С)
R
(мм)
R24
(мм)
S
(см)
07 9.09 С 6 н/о н/о +31.1 -1.6 12 +28 +28 жарко 1017.4 991.2
09 9.09 С 4 н/о н/о +30.1 -0.3 14 +27 +27 жарко 1017.1 990.9
10 9.09 СВ 3 н/о н/о +23.7 +2.0 24 +23 +23 комфорт 1016.9 990.7
12 9.09 С 3 н/о н/о +22.0 +0.5 24 +21 +21 комфорт 1017.4 991.2
13 9.09 СВ 5 н/о н/о +18.8 +0.4 29 +19 +19 1016.9 990.7 +31.9
15 9.09 СВ 5 н/о н/о +16.8 -0.4 31 +16 +16 1016.5 990.3
16 9.09 СВ 5 н/о н/о +16.1 -0.6 32 +15 +15 1016.2 990.0
18 9.09 С 3 н/о н/о +15.2 -0.9 33 +15 +15 1015.5 989.4
19 9.09 СЗ 3 н/о н/о +16.0 -1.5 30 +16 +16 1016.0 989.8
21 9.09 С 2 н/о н/о +15.1 -1.0 33 +15 +15 1016.3 990.1
22 9.09 СЗ 2 н/о н/о +13.2 -0.8 38 +13 +13 1016.5 990.3
00 10.09 СЗ 2 н/о н/о +18.0 +11.1 64 +19 +19 1017.0 990.8
01 10.09 З 2 н/о н/о +21.4 +11.7 54 +23 +23 комфорт 1016.8 990.6 +11.9
03 10.09 З 1 н/о н/о +28.5 +8.7 29 +28 +28 жарко 1015.9 989.7
04 10.09 СВ 2 н/о н/о +31.4 +4.2 18 +29 +29 жарко 1015.3 989.2
06 10.09 З 6 н/о н/о +33.5 +0.2 12 +30 +30 жарко 1014.1 988.0
07 10.09 СЗ 4 н/о н/о +33.9 +0.5 12 +31 +31 жарко 1013.7 987.6
09 10.09 З 5 н/о н/о +31.8 0.0 13 +29 +29 жарко 1013.9 987.8
10 10.09 СЗ 2 н/о н/о +27.0 +0.7 18 +25 +25 комфорт 1014.4 988.3
12 10.09 С 2 н/о н/о +22.7 +1.7 25 +22 +22 комфорт 1015.2 989.1
13 10.09 С 3 н/о н/о +22.6 +2.7 27 +22 +22 комфорт 1015.2 989.1 +34.6
15 10.09 СЗ 4 н/о н/о +20.2 +3.4 33 +21 +21 комфорт 1015.5 989.4
16 10.09 СЗ 4 н/о н/о +19.5 +4.0 36 +20 +20 1016.2 990.0
18 10.09 З 6 н/о н/о +17.7 +7.2 50 +17 +17 1016.8 990.6
19 10.09 З 5 н/о н/о +15.6 +9.5 67 +14 +14 1017.4 991.2
21 10.09 СЗ 4 н/о н/о +13.0 +13.0 100 +11 +11 1018.7 992.5
22 10.09 СЗ 4 н/о н/о +12.2 +12.2 100 +10 +10 1018.8 992.6
00 11.09 З 5 н/о н/о +15.1 +15.1 100 +14 +14 1021.1 994.8
01 11.09 З 6 н/о н/о +17.8 +12.7 72 +17 +17 1021.2 994.9 +12.2
03 11.09 З 4 н/о н/о +20.7 +9.9 50 +22 +22 комфорт 1021.6 995.3
04 11.09 З 3 н/о н/о +23.2 +9.9 43 +25 +25 комфорт 1021.3 995.0
06 11.09 З 3 н/о н/о +24.7 +9.0 37 +25 +25 комфорт 1020.7 994.4
07 11.09 З 4 н/о н/о +25.9 +9.7 36 +27 +27 жарко 1020.7 994.4
09 11.09 З 4 н/о н/о +24.6 +9.3 38 +25 +25 комфорт 1021.6 995.3
10 11.09 Ю 3 н/о н/о +18.9 +12.6 67 +20 +20 1022.5 996.2
12 11.09 В 4 н/о н/о +16.4 +12.6 78 +16 +16 1024.0 997.6
13 11.09 В 4 н/о н/о +16.0 +12.2 78 +15 +15 1024.3 997.9 +26.7
15 11.09 СВ 4 н/о н/о +15.0 +13.0 88 +14 +14 1024.0 997.6
16 11.09 СВ 4 н/о н/о +14.0 +13.8 99 +12 +12 1023.8 997.4
18 11.09 СВ 3 н/о н/о +13.1 +13.1 100 +12 +12 1023.6 997.2
19 11.09 С 3 н/о н/о +11.9 +11.9 100 +10 +10 1023.5 997.1
21 11.09 С 3 н/о н/о +11.6 +11.6 100 +10 +10 1023.8 997.4
22 11.09 С 3 н/о н/о +11.6 +11.6 100 +10 +10 1023.8 997.4
00 12.09 С 4 н/о н/о +18.8 +14.1 74 +20 +20 1024.4 998.0
01 12.09 С 6 н/о н/о +22.0 +11.7 52 +24 +24 комфорт 1024.0 997.6 +11.1
03 12.09 С 6 н/о н/о +27.1 +7.5 29 +27 +27 жарко 1022.5 996.2
04 12.09 СЗ 5 н/о н/о +28.0 +6.2 25 +27 +27 жарко 1021.6 995.3
06 12.09 З 4 н/о н/о +29.8 +5.1 21 +28 +28 жарко 1020.1 993.8
07 12.09 З 7 н/о н/о +29.9 +5.2 21 +28 +28 жарко 1020.0 993.7
09 12.09 З 5 н/о н/о +28.0 +5.0 23 +27 +27 жарко 1020.8 994.5
10 12.09 Ю 3 н/о н/о +21.2 +9.8 48 +23 +23 комфорт 1021.7 995.4
12 12.09 ЮВ 2 н/о н/о +17.7 +9.6 59 +18 +18 1023.6 997.2
13 12.09 ЮВ 2 н/о н/о +16.9 +8.1 56 +17 +17 1024.1 997.7 +30.6
15 12.09 ЮЗ 4 н/о н/о +14.2 +13.1 93 +13 +13 1025.2 998.8
16 12.09 Ю 4 н/о н/о +14.8 +14.8 100 +14 +14 1025.1 998.7
18 12.09 Ю 3 н/о н/о +13.6 +13.6 100 +12 +12 1024.4 998.0
19 12.09 ЮВ 3 н/о н/о +13.1 +13.1 100 +12 +12 1024.1 997.7
21 12.09 В 3 н/о н/о +13.6 +13.6 100 +12 +12 1023.9 997.5
22 12.09 В 3 н/о н/о +12.6 +12.6 100 +11 +11 1024.0 997.6
00 13.09 В 4 н/о н/о +17.4 +17.4 100 +17 +17 1024.1 997.7
01 13.09 В 6 н/о н/о +20.3 +15.5 74 +23 +23 комфорт 1024.0 997.6 +12.3
03 13.09 СВ 3 н/о н/о +25.7 +13.2 46 +28 +28 жарко 1022.5 996.2
04 13.09 С 4 н/о н/о +29.2 +10.8 32 +30 +30 жарко 1021.1 994.8
06 13.09 СЗ 4 н/о н/о +31.6 +9.2 25 +31 +31 жарко 1019.3 993.1
07 13.09 ЮЗ 5 н/о н/о +30.2 +12.1 33 +31 +31 жарко 1018.9 992.7
09 13.09 ЮВ 3 н/о н/о +24.2 +15.7 59 +27 +27 жарко 1019.3 993.1
10 13.09 ЮВ 3 н/о н/о +19.2 +18.5 96 +21 +21 комфорт 1019.8 993.5
12 13.09 СВ 3 н/о н/о +18.9 +18.9 100 +21 +21 комфорт 1020.8 994.5
13 13.09 СВ 4 н/о н/о +17.8 +17.8 100 +18 +18 1020.8 994.5 +32.2
15 13.09 С 1 н/о н/о +17.8 +17.8 100 +19 +19 1021.3 995.0
16 13.09 СЗ 2 н/о н/о +16.5 +16.5 100 +17 +17 1021.4 995.1
18 13.09 З 2 н/о н/о +16.9 +16.9 100 +17 +17 1021.6 995.3
19 13.09 СЗ 2 н/о н/о +14.9 +14.9 100 +15 +15 1021.2 994.9
21 13.09 С 3 н/о н/о +14.3 +14.3 100 +13 +13 1021.0 994.7
22 13.09 С 2 н/о н/о +14.6 +14.6 100 +14 +14 1021.1 994.8
00 14.09 СЗ 1 н/о н/о +20.4 +15.4 73 +24 +24 комфорт 1022.3 996.0
01 14.09 ЮЗ 3 н/о н/о +22.1 +14.2 61 +25 +25 комфорт 1022.5 996.2 +13.4
03 14.09 З 2 н/о н/о +23.9 +13.7 53 +26 +26 жарко 1021.8 995.5
04 14.09 Ю 3 н/о н/о +24.5 +14.3 53 +27 +27 жарко 1021.3 995.0
06 14.09 Ю 5 н/о н/о +20.8 +18.2 85 +25 +25 комфорт 1020.7 994.4
07 14.09 Ю 4 н/о н/о +19.9 +18.7 93 +23 +23 комфорт 1020.9 994.6
09 14.09 ЮВ 4 н/о н/о +17.7 +17.7 100 +17 +17 1021.4 995.1
10 14.09 Ю 3 н/о н/о +15.6 +15.6 100 +15 +15 1021.8 995.5
12 14.09 В 2 н/о н/о +14.1 +14.1 100 +13 +13 1023.2 996.9
13 14.09 В 2 н/о н/о +14.6 +14.6 100 +14 +14 1023.5 997.1 +25.7
15 14.09 ЮЗ 2 н/о н/о +14.8 +14.8 100 +14 +14 1022.5 996.2
16 14.09 Ю 3 н/о в посл. час дождь {туман} н/о +14.4 +14.4 100 +13 +13 1022.7 996.4
18 14.09 ЮЗ 4 н/о н/о +13.9 +13.9 100 +12 +12 1022.4 996.1
19 14.09 ЮВ 4 н/о в посл. час дождь {туман} н/о +13.3 +12 +12 1022.4 996.1
21 14.09 Ю 2 н/о н/о +13.0 1023.8 997.4
22 14.09 ЮВ 3 н/о в посл. час дождь {туман} н/о +13.0 +13 +13 1024.1 997.7
00 15.09 ЮВ 3 н/о н/о +13.5 1025.2 998.8
01 15.09 ЮВ 5 н/о в посл. час дождь {туман} н/о +13.0 +12 +12 1025.4 999.0 +12.8
03 15.09 ЮВ 5 н/о н/о +13.6 +13.6 100 +12 +12 1025.0 998.6
04 15.09 ЮВ 4 н/о {туман} н/о +14.2 +14.2 100 +13 +13 1024.8 998.4
06 15.09 ЮВ 4 н/о н/о +14.7 +14.7 100 +13 +13 1024.7 998.3
07 15.09 ЮВ 4 н/о {туман} н/о +14.5 +14.5 100 +13 +13 1024.9 998.5
09 15.09 ЮВ 4 н/о н/о +13.4 +12.1 92 +12 +12 1025.7 999.3
10 15.09 ЮВ 3 н/о н/о +12.8 +12.2 96 +11 +11 1026.2 999.8
12 15.09 В 2 н/о н/о +11.7 +11.7 100 +10 +10 1027.1 1000.7
13 15.09 В 4 н/о н/о +11.7 +11.7 100 +9 +9 1027.1 1000.7 +15.2
15 15.09 ЮВ 3 н/о н/о +10.2 +10.2 100 +8 +8 1027.4 1000.9
16 15.09 В 3 н/о н/о +9.7 +9.7 100 +7 +7 1026.8 1000.4
18 15.09 В 3 н/о н/о +9.1 +9.1 100 +7 +7 1026.3 999.9
19 15.09 В 3 н/о н/о +8.9 +8.9 100 +6 +6 1026.1 999.7
21 15.09 В 4 н/о н/о +8.6 +8.6 100 +5 +5 1026.5 1000.1
22 15.09 СВ 4 н/о н/о +8.1 +8.1 100 +5 +5 1026.9 1000.5
00 16.09 СВ 5 н/о н/о +12.3 +10.7 90 +10 +10 1027.2 1000.8
01 16.09 СВ 7 н/о н/о +13.8 +8.8 72 +12 +12 1026.8 1000.4 +7.8
03 16.09 СВ 6 н/о н/о +17.3 +6.8 50 +16 +16 1025.3 998.9
04 16.09 СВ 5 н/о н/о +18.6 +6.8 46 +19 +19 1024.3 997.9

 

Местоположение метеостанции Мунглинап Запад (Западная Австралия, Австралия): широта -33.55 долгота 120.70 высота над уровнем моря 220 м.

В архиве по умолчанию представлена погода в Мунглинап Запад за последнюю неделю. Архивные данные за месяц целиком и за предыдущие месяцы, начиная с января 2011 года, Вы можете получить, выбрав интересующий диапазон дат из раскрывающегося списка и нажав кнопку "Ввод!".


*Определитесь, кто Вы:
робот инопланетянин человек

Внимание! Время в таблицах - всемирное. Для получения местного времени необходимо прибавить поправку, которая равна 8 ч.

Смотрите также архив погоды в соседних городах и на ближайших метеорологических станциях:

Погода в Хоптауне (Западная Австралия, Австралия) (68 км)
Погода в Эсперансе (Западная Австралия, Австралия) (106 км)
Погода в Салмон Гамс (Западная Австралия, Австралия) (106 км)
Погода в Эсперансе (Западная Австралия, Австралия) (114 км)
Погода в Джакапе (Западная Австралия, Австралия) (153 км)
Погода в Норсмане (Западная Австралия, Австралия) (177 км)
Погода в Ньюдегейте (Западная Австралия, Австралия) (180 км)
Погода на Озере Грейс (Западная Австралия, Австралия) (214 км)
Погода в Катаннинге (Западная Австралия, Австралия) (287 км)
Погода в Саутерн Кросс (Западная Австралия, Австралия) (288 км)

Пояснения к столбцам:

Ветер - указаны скорость ветра в м/с - средняя за 10 мин, порывы в срок и между сроками (в фигурных скобках) и направление, откуда дует ветер: С - северный, СВ - северо-восточный, В - восточный, ЮВ - юго-восточный, Ю - южный, ЮЗ - юго-западный, З - западный, СЗ - северо-западный.
Видимость - горизонтальная дальность видимости в метрах или километрах. При видимости от 1 до 10 км при отсутствии осадков обычно наблюдается дымка, при ухудшении видимости до 1 км и менее - туман. В сухую погоду видимость может ухудшаться дымом, пылью или мглою.
Явления - указаны атмосферные явления, наблюдавшиеся в срок или в последний час перед сроком; фигурными скобками обозначены явления, наблюдавшиеся между сроками (за 1-3 часа до срока); квадратными скобками обозначены град или гололедные отложения с указанием их диаметра в мм.
Облачность - указаны через наклонную черту общая и нижняя облачность в баллах и высота нижней границы облаков в метрах; квадратными скобками обозначены формы облаков: Ci - перистые, Cs - перисто-слоистые, Cc - перисто-кучевые, Ac - высококучевые, As - высокослоистые, Sc - слоисто-кучевые, Ns - слоисто-дождевые, Cu - кучевые, Cb - кучево-дождевые. Подробнее классификацию облаков см. в Атласе облаков (PDF).
T - Температура воздуха - температура, измеренная на высоте 2 м над землей.
Td - Температура точки росы - температура, при понижении до которой содержащийся в воздухе водяной пар достигнет насыщения.
f - Относительная влажность воздуха - влажноcть воздуха, измеренная на высоте 2 м над землей.
Te - Эффективная температура - температура, которую ощущает одетый по сезону человек в тени. Характеристика душности погоды. При расчете учитывается влияние влажности воздуха и скорости ветра на теплоощущения человека.
Tes - Эффективная температура на солнце - температура, которую ощущает человек, с поправкой на солнечный нагрев. Характеристика знойности погоды. Зависит от высоты солнца над горизонтом, облачности и скорости ветра. Ночью, в пасмурную погоду, а также при ветре 12 м/с и более поправка равна нулю.
P - Атмосферное давление - приведенное к уровню моря атмосферное давление.
Po - Атмосферное давление - измеренное на уровне метеостанции атмосферное давление.
Tmin - Минимальная температура - минимум температуры воздуха на высоте 2 м над землей.
Tmax - Максимальная температура - максимум температуры воздуха на высоте 2 м над землей.
R - Количество осадков - Количество выпавших осадков за период времени, мм. При наведении курсора мыши на число - период времени, за который выпало указанное количество осадков.
R24 - Количество осадков - Количество выпавших осадков за 24 часа, мм.
S - Снежный покров - Высота снежного покрова, см. При наведении курсора мыши на число - состояние снежного покрова и степень покрытия местности в баллах.